Tracking 30995 objects as of 6-Jul-2025
HD Live streaming from Space Station
objects crossing your sky now

CLUSTER II-FM6

Track CLUSTER II-FM6 now!
CLUSTER II-FM6 is classified as:


NORAD ID: 26410
Int'l Code: 2000-041A
Perigee: 5,001.8 km
Apogee: 126,488.9 km
Inclination: 144.8 °
Period: 3,212.3 minutes
Semi major axis: 72116 km
RCS: 1.9953 m2 (large)
Launch date: July 16, 2000
Source: European Space Agency (ESA)
Launch site: TYURATAM MISSILE AND SPACE COMPLEX (TTMTR)
Your satellite tracking list
Your tracking list is empty




NASA's NSSDC Master Catalog

Two Line Element Set (TLE):
1 26410U 00041A   25189.40380459  .00002845  00000-0  00000+0 0  9994
2 26410 144.7673  12.9850 8422996 228.3393 359.4052  0.44828316 30526
Source of the keplerian elements: AFSPC